This is the latest recevied weather packets stored in our database for station/object EA1EXV-11. If no packets are shown the sender has not sent any weather packets the latest 10 day(s).
| Time | Temp. | Humidity | Pressure | Rain* | Wind** | Luminosity | Snow |
|---|---|---|---|---|---|---|---|
| 1777425328 | 12.22° C | 65% | 1010.3 hPa | - | - | - | - |
| 1777424428 | 12.22° C | 65% | 1010.4 hPa | - | - | - | - |
| 1777423528 | 12.22° C | 64% | 1010.5 hPa | - | - | - | - |
| 1777422628 | 12.22° C | 64% | 1010.6 hPa | - | - | - | - |
| 1777421728 | 12.78° C | 62% | 1010.6 hPa | - | - | - | - |
| 1777420828 | 12.78° C | 62% | 1010.6 hPa | - | - | - | - |
| 1777419928 | 12.78° C | 61% | 1010.7 hPa | - | - | - | - |
| 1777419028 | 13.33° C | 60% | 1010.9 hPa | - | - | - | - |
| 1777418128 | 13.33° C | 60% | 1010.9 hPa | - | - | - | - |
| 1777417228 | 13.89° C | 59% | 1010.8 hPa | - | - | - | - |
| 1777416328 | 13.89° C | 58% | 1010.9 hPa | - | - | - | - |
| 1777415427 | 13.89° C | 56% | 1011 hPa | - | - | - | - |
| 1777414527 | 14.44° C | 55% | 1011.1 hPa | - | - | - | - |
| 1777413627 | 14.44° C | 54% | 1011.2 hPa | - | - | - | - |
| 1777412727 | 14.44° C | 53% | 1011.1 hPa | - | - | - | - |
| 1777411827 | 15° C | 53% | 1011.1 hPa | - | - | - | - |
| 1777410927 | 15° C | 52% | 1011.2 hPa | - | - | - | - |
| 1777410027 | 15° C | 50% | 1011.2 hPa | - | - | - | - |
| 1777409127 | 15.56° C | 49% | 1011.3 hPa | - | - | - | - |
| 1777408227 | 16.11° C | 48% | 1011.2 hPa | - | - | - | - |
| 1777407327 | 16.67° C | 47% | 1011.1 hPa | - | - | - | - |
| 1777406426 | 17.22° C | 46% | 1011.1 hPa | - | - | - | - |
| 1777405526 | 17.78° C | 44% | 1011.2 hPa | - | - | - | - |
| 1777404626 | 18.33° C | 43% | 1011.1 hPa | - | - | - | - |
* Rain since midnight (hover to see other rain measurements)
** Current wind speed in m/s (hover to see current wind gust speed)